Location: Wanzleben
(52.0609°N, 11.4408°E)
Time: 11:47:03
(UTC+00:00)

Cosmos 2263 Rocket - Pass Details

Date: 19 January 2021
Orbit: 825 x 847 km, 71.0° (Epoch: 24 February)

Event Time Altitude Azimuth Distance (km) Brightness Sun altitude
Rises 17:31:58 0° 219° (SW) 3,399 6.2 -16.8°
Reaches altitude 10° 17:34:26 10° 223° (SW) 2,466 5.4 -17.2°
Maximum altitude 17:40:04 64° 305° (NW) 932 2.6 -18.0°
Enters shadow 17:45:00 14° 26° (NNE) 2,208 4.0 -18.8°
